Regional Weather Roundup
Issued by NWS Grand Forks, ND

Home | Current Version | Previous Version | Text Only | Print | Product List | Glossary Off
Versions: 1 2 3 4 5 6 7 8 9 10 11 12 13 14 15 16 17 18 19 20 21 22 23 24 25 26 27 28 29 30 31 32 33 34 35 36 37 38 39 40 41 42 43 44 45 46 47 48 49 50

000
ASUS43 KFGF 281610
RWRFGF
PRAIRIE TO PINES  WEATHER ROUNDUP
NATIONAL WEATHER SERVICE EASTERN NORTH DAKOTA/GRAND FORKS ND
1100 AM CDT SAT MAY 28 2016

 **SATELLITE DATA USED TO AUGMENT SKY COVER AT AUTOMATED STATIONS**
 *****  WEATHER ACROSS EASTERN NORTH DAKOTA  *****

CITY           SKY/WX    TMP DP  RH WIND       PRES   REMARKS
GRAND FORKS    PTSUNNY   71  55  56 NE8       29.83S
GRAND FRKS AFB PTSUNNY   69  55  59 NE10      29.84S
GRAND FRKS NWS   N/A     68 N/A N/A N12         N/A
DEVILS LAKE    CLOUDY    59  56  89 N8        29.89S
FARGO          CLOUDY    69  57  65 N10       29.81S
WAHPETON ARPT  CLOUDY    68  50  52 N9        29.80S
$$

 ***** WEATHER ACROSS CENTRAL AND WESTERN NORTH DAKOTA  *****

CITY           SKY/WX    TMP DP  RH WIND       PRES   REMARKS
BISMARCK       CLOUDY    66  56  70 NE7       29.88F
MINOT          CLOUDY    61  53  75 N5        29.90S
JAMESTOWN      CLOUDY    62  58  86 N10       29.86R
MINOT AFB      CLOUDY    57  52  84 N3        29.90S
GARRISON         N/A     60  53  77 E7        29.89S
WILLISTON      CLOUDY    61  52  72 E8        29.90R
DICKINSON      SUNNY     64  48  56 VRB6      29.87S
HETTINGER      SUNNY     67  46  47 CALM      29.89S
$$

 *****  OTHER AIRPORT OBSERVATIONS IN OUR AREA  *****

CITY           SKY/WX    TMP DP  RH WIND       PRES   REMARKS
WALHALLA       FAIR      63  63 100 NW6       29.88S
GRAFTON AIRPOR FAIR      68  59  73 NE6       29.87S
VALLEY CITY AR PTSUNNY   64  64 100 N7        29.86S
CANDO          NOT AVBL
CAVALIER APRT  PTSUNNY   64  59  82 N3        29.87S
GWINNER        PTSUNNY   66  59  77 NE10      29.83F
SHEYENNE NWR     N/A     68  58  70 NE7       29.95S
ROLLA          CLOUDY    54  54 100 N10       29.92S FOG
 ***** THE ABOVE OBSERVATIONS ARE NON NWS ARE NOT QUALITY
       CONTROLLED AND MAY MIS-REPORT RAIN FOR SNOW...
$$

  *****  WEATHER ACROSS NORTHERN MINNESOTA  *****

CITY           SKY/WX    TMP DP  RH WIND       PRES   REMARKS
FLAG ISLAND    CLOUDY    63  57  82 N12       29.87S
WARROAD        CLOUDY    63  57  82 NE8       29.88S
ROSEAU         CLOUDY    64  59  82 NE8       29.87S
HALLOCK        CLOUDY    70  57  64 NE3       29.85S
THF RVR FALLS  CLOUDY    64  54  68 NE12      29.86F
BAUDETTE       CLOUDY    63  58  83 N8        29.85S
WASKISH        CLOUDY    59  55  88 NE6       29.83S FOG
CROOKSTON      PTSUNNY   70  55  60 NE9       29.84S
STEPHEN NDAWN    N/A     70  57  64 NE6         N/A
GREENBUSH NDAW   N/A     64  61  88 NE9         N/A
$$
  *****  WEATHER ACROSS CENTRAL AND WEST MINNESOTA  *****

CITY           SKY/WX    TMP DP  RH WIND       PRES   REMARKS
FOSSTON        CLOUDY    59  55  88 N12       29.83F FOG
BEMIDJI        CLOUDY    58  56  92 NE8       29.80S
PARK RAPIDS    CLOUDY    59  54  83 N6        29.79S HAZE
ELBOW LAKE     FAIR      65  55  68 NE5       29.79S
WADENA         CLOUDY    59  54  82 N7        29.79S
DETROIT LAKES  CLOUDY    61  54  77 N9        29.82R
MOORHEAD       CLOUDY    66  57  72 NE9       29.82S
FERGUS FALLS   CLOUDY    66  54  63 NE7       29.76S
MORRIS MN      CLOUDY    63  57  82 CALM      29.79R
STAPLES        CLOUDY    59  54  82 N5        29.78S
$$
  *****  WEATHER ELSEWHERE ACROSS MINNESOTA  *****

CITY           SKY/WX    TMP DP  RH WIND       PRES   REMARKS
DULUTH         CLOUDY    55  54  96 NE8       29.78R FOG
INTRNTL FALLS  CLOUDY    59  55  87 NE8       29.83S FOG
ELY            CLOUDY    59  57  94 NE5       29.79F
CLOQUET        CLOUDY    55  54  94 E3        29.78R
WHEATON        PTSUNNY   68  57  68 N6        29.81S
BRAINERD       CLOUDY    59  56  89 N6        29.78S
HIBBING        CLOUDY    58  58 100 VRB5      29.78S FOG
ALEXANDRIA     CLOUDY    63  55  75 NW3       29.80R
SAINT CLOUD    CLOUDY    60  56  86 CALM      29.78R
MINNEAPOLIS    CLOUDY    66  59  78 N3        29.76F
$$

  *****  WEATHER ACROSS SOUTH DAKOTA  *****

CITY           SKY/WX    TMP DP  RH WIND       PRES   REMARKS
SIOUX FALLS    CLOUDY    63  60  90 N10       29.77S
BROOKINGS      RAIN      59  58  96 NE6       29.79R
WATERTOWN      CLOUDY    60  57  89 NE8       29.80S
HURON          LGT RAIN  61  60  97 N7        29.79S
SISSETON         N/A     67  54  63 N7        29.80S
ABERDEEN       CLOUDY    64  59  83 NE9       29.83S
MITCHELL       LGT RAIN  61  60  97 NW7       29.80S FOG
PIERRE         CLOUDY    65  54  67 N8        29.84R
MOBRIDGE       CLOUDY    67  55  65 N9        29.83S
RAPID CITY     SUNNY     66  46  48 VRB5      29.91S
$$

  *****  SOME WEATHER IN NEARBY STATES *****

CITY           SKY/WX    TMP DP  RH WIND       PRES   REMARKS
GLASGOW MT     LGT RAIN  53  51  93 NW10      29.90S
GREAT FALLS MT MOSUNNY   54  30  40 W18G32    29.98S
CHEYENNE WY    CLOUDY    57  38  48 W5        30.04S
SCOTTSBLUFF NE SUNNY     63  46  54 NW9       29.97S
OMAHA NE       CLOUDY    67  58  72 SW12      29.78S
DES MOINES IA  CLOUDY    70  61  73 S9        29.77S
DAVENPORT IA   MOSUNNY   76  64  66 S21G30    29.85R
CHICAGO IL     CLOUDY    75  65  70 S20G26    29.91R
EAU CLAIRE WI  CLOUDY    70  64  81 N5        29.75S
LA CROSSE WI   LGT RAIN  69  65  86 S9        29.76R
$$

  *****  SOME NATIONAL WEATHER *****

CITY           SKY/WX    TMP DP  RH WIND       PRES   REMARKS
LA GUARDIA NY  MOSUNNY   88  70  55 SW7       30.11F HX  93
RALEIGH NC     PTSUNNY   80  56  43 VRB3      30.20S
ATLANTA GA     MOSUNNY   80  53  39 E10       30.17S
NEW ORLEANS LA PTSUNNY   84  71  65 SE8       30.00R
OKLAHOMA CITY  MOSUNNY   73  62  68 VRB3      29.95S
ALBUQUERQUE NM MOSUNNY   66  31  27 VRB3      30.11R
SALT LAKE CITY MOSUNNY   64  46  52 NW7       30.03S
LOS ANGELES CA CLOUDY    62  56  80 SW3       29.90R
BOISE ID       SUNNY     53  32  44 W6        30.10R
SEATTLE WA     CLOUDY    52  47  83 S9        30.08F
$$

*** WEATHER ACROSS MANITOBA...SASKATCHEWAN AND ONTARIO ***
                ***ONTARIO***

CITY           SKY/WX    TMP DP  RH WIND       PRES   REMARKS
GERALDTON      DRIZZLE   57  57 100 NE13G22   29.92F FOG
THUNDER BAY    LGT RAIN  61  59  94 E8        29.82S
SIOUX LOOKOUT  LGT RAIN  55  54  94 NE6G17    29.93S
TORONTO        PTSUNNY   82  66  57 S7        30.07S
BIG TROUT LK   CLOUDY    43  37  81 E12G20    30.18F
PICKLE LAKE    CLOUDY    46  45  93 NE13G18   30.04S
DRYDEN         CLOUDY    55  54  94 NE15      29.91R
KENORA         CLOUDY    57  55  94 NE9       29.91S
$$
                *** MANITOBA***

CITY           SKY/WX    TMP DP  RH WIND       PRES   REMARKS
BRANDON        CLOUDY    52  50  93 NE16      29.94R
DAUPHIN        LGT RAIN  50  48  93 NE9       29.99S FOG
ISLAND LAKE    CLOUDY    43  39  87 NE8G17    30.14S
PILOT MOUND    NOT AVBL
THE PAS        CLOUDY    46  41  81 E6        30.09S
THOMPSON       DRIZZLE   41  36  81 E6        30.20S
WINNIPEG       CLOUDY    57  57 100 NE13      29.91R
LYNN LAKE      CLOUDY    39  36  87 SE8       30.17S
GILLAM         CLOUDY    36  34  93 E9        30.28S
$$
                ***SASKATCHEWAN***

CITY           SKY/WX    TMP DP  RH WIND       PRES   REMARKS
ESTEVAN        CLOUDY    54  52  94 E9        29.93R FOG
KINDERSLEY     CLOUDY    50  48  93 NW3       29.87S
LLOYDMINSTER   LGT RAIN  54  52  94 S6        29.85S FOG
PRINCE ALBERT  CLOUDY    50  46  87 SE10      29.98F
REGINA         CLOUDY    55  50  82 E13       29.94R
YORKTON        CLOUDY    54  48  82 E9        29.97F
N. BATTLEFORD  CLOUDY    54  54 100 SE20      29.91R FOG
LA RONGE       CLOUDY    48  43  81 SE12      30.03S
SASKATOON      CLOUDY    54  50  87 SE12G17   29.95R
SWIFT CURRENT  LGT RAIN  48  46  93 W15       29.88R
$$
NOTE: THESE ARE AUTOMATED STATIONS WITH LIMITED QUALITY CONTROL
      "FAIR" INDICATES FEW OR NO CLOUDS BELOW 12,000 FEET WITH NO
      SIGNIFICANT WEATHER AND/OR OBSTRUCTIONS TO VISIBILITY.
      SKY/WX - SKY CONDITION AND SIGNIFICANT WEATHER.
      TMP - AIR TEMPERATURE.    DP   - DEWPOINT TEMPERATURE.
      RH  - RELATIVE HUMIDITY.  PRES - PRESSURE.
      HX  - HEAT INDEX.         WCI  - WIND CHILL INDEX.
$



USA.gov is the U.S. government's official web portal to all federal, state and local government web resources and services.